User: anonymous   Login
Location: Voyageurs National Park
(48.5020°N, 92.9292°W)
Time: 15:46:43
(UTC-05:00)
Language:

Terra - Orbit

View from above orbital plane
View from above orbital plane
View from above satellite
View from above satellite

Ground track
Ground track

The orbit data is extracted from the following two-line orbital elements,

1 25994U 99068A   17084.77134959 +.00000116 +00000-0 +35817-4 0  9992
2 25994 098.2145 160.9823 0000973 066.4140 293.7157 14.57111685918527
Epoch (UTC): 25 March 2017 18:30:44
Eccentricity: 0.0000973
inclination: 98.2145°
perigee height: 702 km
apogee height: 703 km
right ascension of ascending node: 160.9823°
argument of perigee: 66.4140°
revolutions per day: 14.57111685
mean anomaly at epoch: 293.7157°
orbit number at epoch: 91852

The dashed part of the orbit path shows where the satellite is in the earth's shadow,  

DLR